Location: Nelson
(41.2830°S, 173.2830°E)
Time: 17:49:10
(UTC+12:00)

USA 276 - Pass Details

Date: 14 May 2021
Orbit: 383 x 389 km, 50.0° (Epoch: 01 June)

Event Time Altitude Azimuth Distance (km) Brightness Sun altitude
Rises 17:48:07 0° 236° (WSW) 2,310 6.6 -5.9°
Reaches altitude 10° 17:50:13 10° 232° (SW) 1,450 5.5 -6.3°
Maximum altitude 17:53:27 60° 151° (SSE) 462 2.2 -6.8°
Drops below altitude 10° 17:56:39 10° 69° (ENE) 1,441 4.5 -7.4°
Enters shadow 17:57:49 - 67° (ENE) 1,919 5.1 -7.6°
